Regional Weather Roundup
Issued by NWS Burlington, VT

Home | Current Version | Previous Version | Text Only | Print | Product List | Glossary On
Versions: 1 2 3 4 5 6 7 8 9 10 11 12 13 14 15 16 17 18 19 20 21 22 23 24 25 26 27 28 29 30 31 32 33 34 35 36 37 38 39 40 41 42 43 44 45 46 47 48 49 50
000
ASUS41 KBTV 271930
RWRBTV
VERMONT REGIONAL WEATHER ROUNDUP
NATIONAL WEATHER SERVICE BURLINGTON VT
200 PM EST TUE JAN 27 2015

NOTE: "FAIR" INDICATES FEW OR NO CLOUDS BELOW 12,000 FEET WITH NO
SIGNIFICANT WEATHER AND/OR OBSTRUCTIONS TO VISIBILITY.

* THESE REPORTS ARE NOT UNDER NWS QUALITY CONTROL AND/OR DO NOT
  REPORT WEATHER SUCH AS PRECIPITATION AND FOG.

VTZ001>019-272000-
_____VERMONT_____


CITY           SKY/WX    TMP DP  RH WIND       PRES   REMARKS
BURLINGTON     HVY SNOW   7   1  76 N18G26    29.92S VSB 1/4 WCI -12
MONTPELIER     LGT SNOW   6   1  80 N14G22    29.78S VSB 3/4 WCI -11
MORRISVILLE    SNOW       7   1  76 N13G24    29.84F VSB 1/2 WCI  -9
ST. JOHNSBURY*   N/A      8   0  69 MISG      29.75S
MIDDLEBURY*    LGT SNOW   7   2  78 N12G24    29.84S VSB 1   WCI  -8
RUTLAND*       CLOUDY   N/A N/A N/A NW12G21   29.74S VSB 3/4
SPRINGFIELD    LGT SNOW  16   4  59 N10G23    29.66F WCI   4
HIGHGATE*      CLOUDY     9   0  65 N12G22    29.95F WCI  -6
NEWPORT*       LGT SNOW   6   1  79 N18       29.82F WCI -14
BENNINGTON     LGT SNOW  10   1  67 NW15G28   29.72R WCI  -7
SUTTON*          N/A      3 N/A N/A MISG        N/A
GALLUP MILLS*    N/A      7 N/A N/A MISG        N/A
UNION VILLAGE*   N/A     14 N/A N/A MISG        N/A
MT. MANSFIELD*   N/A     -4 N/A N/A CALM        N/A

_____LAKE CHAMPLAIN_____


CITY           SKY/WX    TMP DP  RH WIND       PRES   REMARKS
BURTON ISLAND*   N/A     10   3  72 NW14        N/A  WCI  -5
COLCHESTER RF*   N/A     12   5  73 N32         N/A  WCI -10
DIAMOND ISL*     N/A     10   5  79 NW29        N/A  WCI -11

$$

NYZ007-026>031-035-052-083-272000-
_____NORTHERN NEW YORK_____


CITY           SKY/WX    TMP DP  RH WIND       PRES   REMARKS
PLATTSBURGH    MOCLDY    10  -3  55 N25G35    29.96F WCI -11
SARANAC LAKE   CLOUDY     7  -7  52 N8        29.80S
MASSENA        CLEAR     11  -5  48 NE18      30.07S WCI  -7
OGDENSBURG*    CLEAR     18  -2  41 NE12G17   30.03R WCI   5
POTSDAM*       CLEAR      9  -2  61 NE15G22   30.01S WCI  -8
STARK FALLS*     N/A      7 N/A N/A N5          N/A
WATERTOWN      CLEAR     14  -2  49 NE22      29.99R WCI  -4
FT DRUM        CLEAR     10  -4  52 NE23      29.95R WCI -10
ALBANY         SNOW      13   7  77 NE10      29.81S VSB 1/2 WCI   0
GLENS FALLS    LGT SNOW  12   5  73 NE12      29.83R WCI  -2

$$
NHZ002-005-011-272000-
_____NEW HAMPSHIRE_____


CITY           SKY/WX    TMP DP  RH WIND       PRES   REMARKS
LEBANON        LGT SNOW  13   4  67 NW10G22   29.68S WCI   0
KEENE          CLOUDY    16   7  67 N24G32    29.61R WCI  -3
MT WASHINGTON  SNOW      -4  -4 100 NE81G91     N/A  VSB 1/16WCI -42
PLYMOUTH       LGT SNOW  15  11  83 W14G21    29.60R WCI   0
WHITEFIELD     LGT SNOW   9   3  77 N12G22    29.67S WCI  -6

$$

_____REGIONAL QUEBEC LOCATIONS_____


CITY           SKY/WX    TMP DP  RH WIND       PRES   REMARKS
MONTREAL       MOCLDY    10  -6  48 N16G28    30.05S WCI  -7
QUEBEC CITY    CLOUDY    10  -4  52 NE14G22   30.05F WCI  -5
SHERBROOKE     LGT SNOW   7   1  78 N12G21    29.85F WCI  -9

_____REGIONAL ONTARIO LOCATIONS_____


CITY           SKY/WX    TMP DP  RH WIND       PRES   REMARKS
OTTAWA         MOCLDY    14  -4  44 N14       30.06F WCI  -1

______KEY______
VSB  - VISIBILITY IN MILES
WCI  - WIND CHILL INDEX
HX   - HEAT INDEX
$$
NNNN



USA.gov is the U.S. government's official web portal to all federal, state and local government web resources and services.